When you browse on this site, cookies collect data to enhance your experience and personalize the content and advertising you see.
Visit our Privacy Policy to learn more. By continuing to use the site, you agree to this use of cookies and data.
  • In Hungary
  • List of Countries
  • For 7 days
  • Water Temperature
  • Satellite Maps
  • Weather Map
  • News
  • Weather Widgets
  • user-avatar
    Login

    Hourly Weather Idlib

    Today, 17 December, Monday

    Time Temperature Precipitation Wind Pressure Humidity
    00:00 +9°C° 0 mm 6 mps 726 mmHg 79%
    01:00 +9°C° 0 mm 5 mps 726 mmHg 80%
    02:00 +10°C° 0 mm 5 mps 725 mmHg 82%
    03:00 +9°C° 0.1 mm 5 mps 725 mmHg 83%
    04:00 +9°C° 0.1 mm 5 mps 725 mmHg 84%
    05:00 +9°C° 0.1 mm 5 mps 725 mmHg 85%
    06:00 +9°C° 0.1 mm 5 mps 725 mmHg 85%
    07:00 +10°C° 0.1 mm 4 mps 725 mmHg 84%
    08:00 +10°C° 0 mm 4 mps 725 mmHg 85%
    09:00 +10°C° 0 mm 4 mps 725 mmHg 83%
    10:00 +11°C° 0 mm 4 mps 725 mmHg 81%
    11:00 +11°C° 0 mm 4 mps 725 mmHg 79%
    12:00 +11°C° 0.1 mm 4 mps 724 mmHg 79%
    13:00 +11°C° 0.1 mm 4 mps 724 mmHg 79%
    14:00 +11°C° 0.1 mm 4 mps 724 mmHg 78%
    15:00 +11°C° 0.1 mm 4 mps 724 mmHg 80%
    16:00 +10°C° 0.1 mm 4 mps 725 mmHg 81%
    17:00 +10°C° 0.1 mm 4 mps 725 mmHg 83%
    18:00 +10°C° 0.2 mm 4 mps 725 mmHg 83%
    19:00 +9°C° 0.2 mm 3 mps 725 mmHg 84%
    20:00 +9°C° 0.2 mm 3 mps 725 mmHg 85%
    21:00 +9°C° 0.3 mm 3 mps 725 mmHg 86%
    22:00 +9°C° 0.3 mm 3 mps 725 mmHg 86%
    23:00 +9°C° 0.3 mm 3 mps 726 mmHg 87%

    Tomorrow, 18 December, Tuesday

    Time Temperature Precipitation Wind Pressure Humidity
    00:00 +9°C° 0.1 mm 3 mps 726 mmHg 87%
    01:00 +9°C° 0.1 mm 3 mps 726 mmHg 88%
    02:00 +9°C° 0.1 mm 3 mps 726 mmHg 88%
    03:00 +9°C° 0 mm 3 mps 726 mmHg 88%
    04:00 +9°C° 0 mm 2 mps 726 mmHg 88%
    05:00 +9°C° 0 mm 2 mps 726 mmHg 88%
    06:00 +9°C° 0 mm 2 mps 726 mmHg 88%
    07:00 +9°C° 0 mm 3 mps 727 mmHg 88%
    08:00 +9°C° 0 mm 3 mps 727 mmHg 87%
    09:00 +10°C° 0 mm 2 mps 727 mmHg 85%
    10:00 +12°C° 0 mm 2 mps 727 mmHg 82%
    11:00 +12°C° 0 mm 2 mps 727 mmHg 80%
    12:00 +13°C° 0 mm 2 mps 727 mmHg 80%
    13:00 +13°C° 0 mm 2 mps 727 mmHg 79%
    14:00 +13°C° 0 mm 2 mps 727 mmHg 79%
    15:00 +13°C° 0.1 mm 2 mps 727 mmHg 81%
    16:00 +12°C° 0.1 mm 2 mps 727 mmHg 83%
    17:00 +12°C° 0.1 mm 2 mps 727 mmHg 85%
    18:00 +12°C° 0.1 mm 2 mps 727 mmHg 86%
    19:00 +11°C° 0.1 mm 3 mps 727 mmHg 86%
    20:00 +11°C° 0.1 mm 3 mps 727 mmHg 87%
    21:00 +11°C° 0 mm 3 mps 727 mmHg 87%
    22:00 +10°C° 0 mm 3 mps 727 mmHg 87%
    23:00 +10°C° 0 mm 3 mps 727 mmHg 87%

    Day after tomorrow, 19 December, Wednesday

    Time Temperature Precipitation Wind Pressure Humidity
    00:00 +10°C° 0.1 mm 3 mps 726 mmHg 87%
    01:00 +10°C° 0.1 mm 3 mps 726 mmHg 87%
    02:00 +10°C° 0.1 mm 3 mps 726 mmHg 87%
    03:00 +10°C° 0.1 mm 3 mps 725 mmHg 88%
    04:00 +9°C° 0.1 mm 3 mps 724 mmHg 88%
    05:00 +9°C° 0.1 mm 3 mps 724 mmHg 89%
    06:00 +10°C° 0.6 mm 3 mps 724 mmHg 88%
    07:00 +10°C° 0.6 mm 3 mps 724 mmHg 86%
    08:00 +10°C° 0.6 mm 2 mps 724 mmHg 85%
    09:00 +11°C° 1.6 mm 3 mps 724 mmHg 83%
    10:00 +11°C° 1.6 mm 3 mps 724 mmHg 81%
    11:00 +11°C° 1.6 mm 3 mps 724 mmHg 79%
    12:00 +12°C° 1.3 mm 2 mps 723 mmHg 80%
    13:00 +10°C° 1.3 mm 2 mps 723 mmHg 82%
    14:00 +10°C° 1.3 mm 2 mps 723 mmHg 83%
    15:00 +10°C° 0.5 mm 2 mps 723 mmHg 83%
    16:00 +10°C° 0.5 mm 2 mps 723 mmHg 84%
    17:00 +9°C° 0.5 mm 2 mps 723 mmHg 84%
    18:00 +10°C° 0.5 mm 1 mps 723 mmHg 85%
    19:00 +10°C° 0.5 mm 1 mps 723 mmHg 86%
    20:00 +10°C° 0.5 mm 1 mps 723 mmHg 87%
    21:00 +10°C° 0.4 mm 1 mps 723 mmHg 88%
    22:00 +10°C° 0.4 mm 1 mps 723 mmHg 88%
    23:00 +10°C° 0.4 mm 1 mps 723 mmHg 89%

    20 December, Thursday

    Time Temperature Precipitation Wind Pressure Humidity
    00:00 +10°C° 0.2 mm 1 mps 723 mmHg 89%
    01:00 +10°C° 0.2 mm 1 mps 723 mmHg 89%
    02:00 +10°C° 0.2 mm 1 mps 723 mmHg 90%
    03:00 +10°C° 0 mm 1 mps 723 mmHg 90%
    04:00 +10°C° 0 mm 1 mps 723 mmHg 90%
    05:00 +10°C° 0 mm 1 mps 722 mmHg 90%
    06:00 +10°C° 0 mm 1 mps 723 mmHg 89%
    07:00 +10°C° 0 mm 1 mps 723 mmHg 87%
    08:00 +10°C° 0 mm 1 mps 724 mmHg 86%
    09:00 +11°C° 0 mm 1 mps 724 mmHg 81%
    10:00 +12°C° 0 mm 1 mps 724 mmHg 77%
    11:00 +13°C° 0 mm 1 mps 724 mmHg 72%
    12:00 +13°C° 0.1 mm 1 mps 724 mmHg 71%
    13:00 +14°C° 0.1 mm 1 mps 724 mmHg 69%
    14:00 +14°C° 0.1 mm 1 mps 724 mmHg 68%
    15:00 +14°C° 0.2 mm 1 mps 724 mmHg 72%
    16:00 +13°C° 0.2 mm 1 mps 725 mmHg 75%
    17:00 +12°C° 0.2 mm 1 mps 725 mmHg 79%
    18:00 +12°C° 0.2 mm 1 mps 725 mmHg 80%
    19:00 +12°C° 0.2 mm 1 mps 726 mmHg 82%
    20:00 +10°C° 0.2 mm 0 mps 726 mmHg 83%
    21:00 +11°C° 0.1 mm 1 mps 726 mmHg 83%
    22:00 +11°C° 0.1 mm 1 mps 726 mmHg 84%
    23:00 +11°C° 0.1 mm 1 mps 727 mmHg 85%

    21 December, Friday

    Time Temperature Precipitation Wind Pressure Humidity
    00:00 +10°C° 0 mm 1 mps 727 mmHg 85%
    01:00 +10°C° 0 mm 1 mps 727 mmHg 85%
    02:00 +10°C° 0 mm 1 mps 727 mmHg 85%
    03:00 +10°C° 0 mm 1 mps 727 mmHg 85%
    04:00 +10°C° 0 mm 1 mps 727 mmHg 85%
    05:00 +9°C° 0 mm 0 mps 727 mmHg 86%
    06:00 +9°C° 0 mm 0 mps 728 mmHg 84%
    07:00 +9°C° 0 mm 0 mps 728 mmHg 82%
    08:00 +10°C° 0 mm 0 mps 729 mmHg 80%
    09:00 +12°C° 0 mm 1 mps 729 mmHg 75%
    10:00 +13°C° 0 mm 1 mps 729 mmHg 69%
    11:00 +14°C° 0 mm 1 mps 729 mmHg 64%
    12:00 +15°C° 0 mm 1 mps 729 mmHg 62%
    13:00 +15°C° 0 mm 2 mps 729 mmHg 60%
    14:00 +15°C° 0 mm 2 mps 728 mmHg 58%
    15:00 +14°C° 0 mm 2 mps 728 mmHg 62%
    16:00 +14°C° 0 mm 2 mps 728 mmHg 67%
    17:00 +13°C° 0 mm 2 mps 728 mmHg 72%
    18:00 +12°C° 0 mm 2 mps 728 mmHg 74%
    19:00 +12°C° 0 mm 2 mps 729 mmHg 76%
    20:00 +10°C° 0 mm 2 mps 729 mmHg 79%
    21:00 +10°C° 0 mm 2 mps 729 mmHg 80%
    22:00 +10°C° 0 mm 2 mps 729 mmHg 81%
    23:00 +9°C° 0 mm 2 mps 728 mmHg 82%

    22 December, Saturday

    Time Temperature Precipitation Wind Pressure Humidity
    00:00 +9°C° 0 mm 2 mps 728 mmHg 83%
    01:00 +9°C° 0 mm 2 mps 728 mmHg 84%
    02:00 +9°C° 0 mm 2 mps 728 mmHg 84%
    03:00 +10°C° 0 mm 1 mps 728 mmHg 85%
    04:00 +10°C° 0 mm 1 mps 727 mmHg 86%
    05:00 +10°C° 0 mm 1 mps 727 mmHg 86%
    06:00 +10°C° 0.1 mm 1 mps 727 mmHg 85%
    07:00 +9°C° 0.1 mm 2 mps 727 mmHg 84%
    08:00 +10°C° 0.1 mm 2 mps 727 mmHg 83%
    09:00 +10°C° 0.4 mm 2 mps 727 mmHg 81%
    10:00 +12°C° 0.4 mm 2 mps 727 mmHg 78%
    11:00 +13°C° 0.4 mm 2 mps 727 mmHg 75%
    12:00 +12°C° 0.3 mm 3 mps 727 mmHg 73%
    13:00 +13°C° 0.3 mm 3 mps 726 mmHg 70%
    14:00 +13°C° 0.3 mm 4 mps 726 mmHg 67%
    15:00 +12°C° 0.2 mm 3 mps 726 mmHg 71%
    16:00 +11°C° 0.2 mm 3 mps 726 mmHg 75%
    17:00 +10°C° 0.2 mm 2 mps 727 mmHg 78%
    18:00 +10°C° 0 mm 2 mps 727 mmHg 80%
    19:00 +10°C° 0 mm 2 mps 727 mmHg 81%
    20:00 +9°C° 0 mm 2 mps 728 mmHg 82%
    21:00 +10°C° 0 mm 1 mps 728 mmHg 81%
    22:00 +9°C° 0 mm 1 mps 728 mmHg 81%
    23:00 +9°C° 0 mm 1 mps 728 mmHg 81%
    Show more